Time,TemperatureF,DewpointF,PressureIn,WindDirection,WindDirectionDegrees,WindSpeedMPH,WindSpeedGustMPH,Humidity,HourlyPrecipIn,Conditions,Clouds,dailyrainin,SoftwareType,DateUTC
2013-10-31 00:04:00,44.8,31.4,30.07,SE,142,0.0,0.0,59,0.00,,---,0.00,VWS V14.01,2013-10-31 07:04:00,
2013-10-31 00:09:00,44.8,31.4,30.07,SE,145,0.0,0.0,59,0.00,,---,0.00,VWS V14.01,2013-10-31 07:09:00,
2013-10-31 00:14:00,44.4,31.4,30.07,SSE,160,0.0,0.0,60,0.00,,---,0.00,VWS V14.01,2013-10-31 07:14:00,
2013-10-31 00:19:00,44.0,31.4,30.07,SSE,159,0.0,0.0,61,0.00,,---,0.00,VWS V14.01,2013-10-31 07:19:00,
2013-10-31 00:24:00,44.1,31.5,30.07,SE,138,0.0,0.0,61,0.00,,---,0.00,VWS V14.01,2013-10-31 07:24:00,
2013-10-31 00:29:00,44.4,31.8,30.08,SE,141,0.0,0.0,61,0.00,,---,0.00,VWS V14.01,2013-10-31 07:29:00,
2013-10-31 00:34:00,44.5,31.5,30.08,SSE,162,0.0,0.0,60,0.00,,---,0.00,VWS V14.01,2013-10-31 07:34:00,
2013-10-31 00:40:00,44.2,31.6,30.08,SSE,162,0.0,0.0,61,0.00,,---,0.00,VWS V14.01,2013-10-31 07:40:00,
2013-10-31 00:45:00,44.5,31.5,30.07,SSE,155,0.0,0.0,60,0.00,,---,0.00,VWS V14.01,2013-10-31 07:45:00,
2013-10-31 00:50:00,44.7,31.7,30.08,SSE,160,0.0,0.0,60,0.00,,---,0.00,VWS V14.01,2013-10-31 07:50:00,
2013-10-31 00:55:00,44.6,31.6,30.08,SSE,152,0.0,0.0,60,0.00,,---,0.00,VWS V14.01,2013-10-31 07:55:00,
2013-10-31 01:00:00,44.4,32.2,30.08,SE,145,0.0,0.0,62,0.00,,---,0.00,VWS V14.01,2013-10-31 08:00:00,
2013-10-31 01:05:00,44.6,32.4,30.08,SE,136,0.0,0.0,62,0.00,,---,0.00,VWS V14.01,2013-10-31 08:05:00,
2013-10-31 01:10:00,44.8,32.2,30.08,SE,141,0.0,0.0,61,0.00,,---,0.00,VWS V14.01,2013-10-31 08:10:00,
2013-10-31 01:15:00,44.4,31.8,30.08,SE,141,0.0,0.0,61,0.00,,---,0.00,VWS V14.01,2013-10-31 08:15:00,
2013-10-31 01:20:00,43.5,31.8,30.08,SE,141,0.0,0.0,63,0.00,,---,0.00,VWS V14.01,2013-10-31 08:20:00,
2013-10-31 01:25:00,43.1,31.8,30.08,SSE,158,0.0,0.0,64,0.00,,---,0.00,VWS V14.01,2013-10-31 08:25:00,
2013-10-31 01:30:00,43.0,32.1,30.08,SSE,153,0.0,0.0,65,0.00,,---,0.00,VWS V14.01,2013-10-31 08:30:00,
2013-10-31 01:35:00,43.3,32.3,30.08,SE,139,0.0,0.0,65,0.00,,---,0.00,VWS V14.01,2013-10-31 08:35:00,
2013-10-31 01:40:00,43.8,32.4,30.08,SE,134,0.0,0.0,64,0.00,,---,0.00,VWS V14.01,2013-10-31 08:40:00,
2013-10-31 01:45:00,43.6,32.2,30.08,SE,134,0.0,0.0,64,0.00,,---,0.00,VWS V14.01,2013-10-31 08:45:00,
2013-10-31 01:50:00,43.7,32.3,30.08,SE,134,0.0,0.0,64,0.00,,---,0.00,VWS V14.01,2013-10-31 08:50:00,
2013-10-31 01:55:00,43.9,32.5,30.08,SE,136,0.0,0.0,64,0.00,,---,0.00,VWS V14.01,2013-10-31 08:55:00,
2013-10-31 02:00:00,43.7,32.3,30.08,SE,136,0.0,0.0,64,0.00,,---,0.00,VWS V14.01,2013-10-31 09:00:00,
2013-10-31 02:05:00,43.5,32.2,30.08,SE,137,0.0,0.0,64,0.00,,---,0.00,VWS V14.01,2013-10-31 09:05:00,
2013-10-31 02:10:00,43.1,32.2,30.08,SE,139,0.0,0.0,65,0.00,,---,0.00,VWS V14.01,2013-10-31 09:10:00,
2013-10-31 02:15:00,43.0,32.4,30.09,SE,142,0.0,0.0,66,0.00,,---,0.00,VWS V14.01,2013-10-31 09:15:00,
2013-10-31 02:20:00,42.6,32.0,30.09,West,276,0.0,0.0,66,0.00,,---,0.00,VWS V14.01,2013-10-31 09:20:00,
2013-10-31 02:25:00,42.0,32.2,30.09,West,276,0.0,0.0,68,0.00,,---,0.00,VWS V14.01,2013-10-31 09:25:00,
2013-10-31 02:30:00,41.9,32.1,30.09,West,273,0.0,0.0,68,0.00,,---,0.00,VWS V14.01,2013-10-31 09:30:00,
2013-10-31 02:35:00,41.6,32.2,30.09,West,273,0.0,0.0,69,0.00,,---,0.00,VWS V14.01,2013-10-31 09:35:00,
2013-10-31 02:40:00,41.5,32.5,30.09,WSW,253,0.0,0.0,70,0.00,,---,0.00,VWS V14.01,2013-10-31 09:40:00,
2013-10-31 02:45:00,40.9,32.2,30.09,WSW,253,0.0,0.0,71,0.00,,---,0.00,VWS V14.01,2013-10-31 09:45:00,
2013-10-31 02:50:00,40.6,32.3,30.09,WSW,240,0.0,0.0,72,0.00,,---,0.00,VWS V14.01,2013-10-31 09:50:00,
2013-10-31 02:55:00,40.5,31.9,30.09,SW,228,0.0,0.0,71,0.00,,---,0.00,VWS V14.01,2013-10-31 09:55:00,
2013-10-31 03:00:00,40.2,31.6,30.09,SW,229,0.0,0.0,71,0.00,,---,0.00,VWS V14.01,2013-10-31 10:00:00,
2013-10-31 03:05:00,39.7,31.1,30.09,SW,228,0.0,0.0,71,0.00,,---,0.00,VWS V14.01,2013-10-31 10:05:00,
2013-10-31 03:10:00,39.4,31.8,30.09,SW,228,0.0,0.0,74,0.00,,---,0.00,VWS V14.01,2013-10-31 10:10:00,
2013-10-31 03:15:00,39.4,31.8,30.09,SW,228,0.0,0.0,74,0.00,,---,0.00,VWS V14.01,2013-10-31 10:15:00,
2013-10-31 03:21:00,39.5,31.6,30.09,SW,228,0.0,0.0,73,0.00,,---,0.00,VWS V14.01,2013-10-31 10:21:00,
2013-10-31 03:26:00,39.4,31.5,30.10,SW,228,0.0,0.0,73,0.00,,---,0.00,VWS V14.01,2013-10-31 10:26:00,
2013-10-31 03:31:00,38.9,31.0,30.10,SW,228,0.0,0.0,73,0.00,,---,0.00,VWS V14.01,2013-10-31 10:31:00,
2013-10-31 03:36:00,38.5,31.0,30.09,SW,228,0.0,0.0,74,0.00,,---,0.00,VWS V14.01,2013-10-31 10:36:00,
2013-10-31 03:41:00,38.6,31.4,30.10,SW,228,0.0,0.0,75,0.00,,---,0.00,VWS V14.01,2013-10-31 10:41:00,
2013-10-31 03:46:00,38.9,31.3,30.10,SW,228,0.0,0.0,74,0.00,,---,0.00,VWS V14.01,2013-10-31 10:46:00,
2013-10-31 03:51:00,38.8,31.6,30.10,SW,228,0.0,0.0,75,0.00,,---,0.00,VWS V14.01,2013-10-31 10:51:00,
2013-10-31 03:56:00,38.6,31.7,30.10,SW,228,0.0,0.0,76,0.00,,---,0.00,VWS V14.01,2013-10-31 10:56:00,
2013-10-31 04:01:00,38.8,32.2,30.10,SW,228,0.0,0.0,77,0.00,,---,0.00,VWS V14.01,2013-10-31 11:01:00,
2013-10-31 04:06:00,38.9,32.3,30.10,SSW,193,0.0,0.0,77,0.00,,---,0.00,VWS V14.01,2013-10-31 11:06:00,
2013-10-31 04:11:00,38.8,32.2,30.10,SSW,193,0.0,0.0,77,0.00,,---,0.00,VWS V14.01,2013-10-31 11:11:00,
2013-10-31 04:16:00,38.7,32.1,30.10,SSW,193,0.0,0.0,77,0.00,,---,0.00,VWS V14.01,2013-10-31 11:16:00,
2013-10-31 04:21:00,38.5,32.2,30.10,SSW,193,0.0,0.0,78,0.00,,---,0.00,VWS V14.01,2013-10-31 11:21:00,
2013-10-31 04:26:00,38.5,32.2,30.10,SSW,193,0.0,0.0,78,0.00,,---,0.00,VWS V14.01,2013-10-31 11:26:00,
2013-10-31 04:31:00,38.6,32.0,30.10,SSW,193,0.0,0.0,77,0.00,,---,0.00,VWS V14.01,2013-10-31 11:31:00,
2013-10-31 04:36:00,38.8,32.2,30.10,SSW,193,0.0,0.0,77,0.00,,---,0.00,VWS V14.01,2013-10-31 11:36:00,
2013-10-31 04:41:00,38.8,31.9,30.11,SSW,193,0.0,0.0,76,0.00,,---,0.00,VWS V14.01,2013-10-31 11:41:00,
2013-10-31 04:46:00,38.6,31.7,30.11,SSW,193,0.0,0.0,76,0.00,,---,0.00,VWS V14.01,2013-10-31 11:46:00,
2013-10-31 04:51:00,38.6,31.7,30.11,SSW,193,0.0,0.0,76,0.00,,---,0.00,VWS V14.01,2013-10-31 11:51:00,
2013-10-31 04:56:00,38.5,31.6,30.11,SSW,193,0.0,0.0,76,0.00,,---,0.00,VWS V14.01,2013-10-31 11:56:00,
2013-10-31 05:01:00,38.6,32.0,30.11,SE,142,0.0,0.0,77,0.00,,---,0.00,VWS V14.01,2013-10-31 12:01:00,
2013-10-31 05:06:00,38.8,31.9,30.11,SE,141,0.0,0.0,76,0.00,,---,0.00,VWS V14.01,2013-10-31 12:06:00,
2013-10-31 05:11:00,38.9,32.0,30.12,SSE,155,0.0,0.0,76,0.00,,---,0.00,VWS V14.01,2013-10-31 12:11:00,
2013-10-31 05:16:00,38.6,31.4,30.12,SSE,158,0.0,0.0,75,0.00,,---,0.00,VWS V14.01,2013-10-31 12:16:00,
2013-10-31 05:21:00,38.7,31.8,30.12,SSE,155,0.0,1.0,76,0.00,,---,0.00,VWS V14.01,2013-10-31 12:21:00,
2013-10-31 05:26:00,38.9,32.0,30.12,SSE,160,0.0,1.0,76,0.00,,---,0.00,VWS V14.01,2013-10-31 12:26:00,
2013-10-31 05:31:00,38.7,31.5,30.12,South,169,0.0,0.0,75,0.00,,---,0.00,VWS V14.01,2013-10-31 12:31:00,
2013-10-31 05:36:00,38.5,31.6,30.12,SE,146,0.0,0.0,76,0.00,,---,0.00,VWS V14.01,2013-10-31 12:36:00,
2013-10-31 05:41:00,38.6,32.0,30.12,SSE,152,0.0,0.0,77,0.00,,---,0.00,VWS V14.01,2013-10-31 12:41:00,
2013-10-31 05:46:00,38.9,32.3,30.12,SSE,162,1.0,2.0,77,0.00,,---,0.00,VWS V14.01,2013-10-31 12:46:00,
2013-10-31 05:51:00,39.0,32.4,30.13,SE,146,1.0,2.0,77,0.00,,---,0.00,VWS V14.01,2013-10-31 12:51:00,
2013-10-31 05:56:00,39.5,32.9,30.13,SSE,160,0.0,2.0,77,0.00,,---,0.00,VWS V14.01,2013-10-31 12:56:00,
2013-10-31 06:01:00,39.7,32.8,30.13,SE,139,0.0,0.0,76,0.00,,---,0.00,VWS V14.01,2013-10-31 13:01:00,
2013-10-31 06:06:00,40.0,32.7,30.13,SSE,153,0.0,0.0,75,0.00,,---,0.00,VWS V14.01,2013-10-31 13:06:00,
2013-10-31 06:11:00,39.7,32.4,30.13,SSE,153,0.0,0.0,75,0.00,,---,0.00,VWS V14.01,2013-10-31 13:11:00,
2013-10-31 06:16:00,39.2,32.0,30.14,SSE,153,0.0,0.0,75,0.00,,---,0.00,VWS V14.01,2013-10-31 13:16:00,
2013-10-31 06:21:00,38.6,31.7,30.14,SSE,153,0.0,0.0,76,0.00,,---,0.00,VWS V14.01,2013-10-31 13:21:00,
2013-10-31 06:26:00,38.0,31.4,30.14,SSE,152,0.0,0.0,77,0.00,,---,0.00,VWS V14.01,2013-10-31 13:26:00,
2013-10-31 06:31:00,37.5,31.3,30.14,SSE,152,0.0,0.0,78,0.00,,---,0.00,VWS V14.01,2013-10-31 13:31:00,
2013-10-31 06:36:00,37.3,31.4,30.14,SSE,152,0.0,0.0,79,0.00,,---,0.00,VWS V14.01,2013-10-31 13:36:00,
2013-10-31 06:41:00,37.2,31.3,30.14,SSE,153,0.0,0.0,79,0.00,,---,0.00,VWS V14.01,2013-10-31 13:41:00,
2013-10-31 06:46:00,36.9,31.0,30.14,SSE,153,0.0,0.0,79,0.00,,---,0.00,VWS V14.01,2013-10-31 13:46:00,
2013-10-31 06:51:00,36.5,30.9,30.14,SSE,153,0.0,0.0,80,0.00,,---,0.00,VWS V14.01,2013-10-31 13:51:00,
2013-10-31 06:56:00,36.4,31.1,30.14,SSE,152,0.0,0.0,81,0.00,,---,0.00,VWS V14.01,2013-10-31 13:56:00,
2013-10-31 07:01:00,36.4,31.1,30.14,SSE,151,0.0,0.0,81,0.00,,---,0.00,VWS V14.01,2013-10-31 14:01:00,
2013-10-31 07:06:00,36.3,31.0,30.14,SSE,151,0.0,0.0,81,0.00,,---,0.00,VWS V14.01,2013-10-31 14:06:00,
2013-10-31 07:11:00,36.3,31.0,30.15,SSE,150,0.0,0.0,81,0.00,,---,0.00,VWS V14.01,2013-10-31 14:11:00,
2013-10-31 07:16:00,35.9,30.6,30.15,SSE,150,0.0,0.0,81,0.00,,---,0.00,VWS V14.01,2013-10-31 14:16:00,
2013-10-31 07:21:00,35.8,30.9,30.15,SSE,150,0.0,0.0,82,0.00,,---,0.00,VWS V14.01,2013-10-31 14:21:00,
2013-10-31 07:26:00,36.2,31.2,30.15,SSE,153,0.0,0.0,82,0.00,,---,0.00,VWS V14.01,2013-10-31 14:26:00,
2013-10-31 07:31:00,36.9,31.9,30.15,SSE,153,0.0,0.0,82,0.00,,---,0.00,VWS V14.01,2013-10-31 14:31:00,
2013-10-31 07:36:00,37.8,32.8,30.15,SSE,153,0.0,0.0,82,0.00,,---,0.00,VWS V14.01,2013-10-31 14:36:00,
2013-10-31 07:41:00,38.7,33.1,30.15,SSE,153,0.0,0.0,80,0.00,,---,0.00,VWS V14.01,2013-10-31 14:41:00,
2013-10-31 07:46:00,39.3,33.0,30.16,SSE,153,0.0,0.0,78,0.00,,---,0.00,VWS V14.01,2013-10-31 14:46:00,
2013-10-31 07:51:00,40.0,33.4,30.16,SSE,153,0.0,0.0,77,0.00,,---,0.00,VWS V14.01,2013-10-31 14:51:00,
2013-10-31 07:56:00,40.7,33.4,30.16,SSE,153,0.0,0.0,75,0.00,,---,0.00,VWS V14.01,2013-10-31 14:56:00,
2013-10-31 08:01:00,41.6,33.9,30.16,SSE,153,0.0,0.0,74,0.00,,---,0.00,VWS V14.01,2013-10-31 15:01:00,
2013-10-31 08:06:00,42.4,34.0,30.17,SSE,163,0.0,0.0,72,0.00,,---,0.00,VWS V14.01,2013-10-31 15:06:00,
2013-10-31 08:11:00,42.8,33.7,30.17,SSE,165,0.0,0.0,70,0.00,,---,0.00,VWS V14.01,2013-10-31 15:11:00,
2013-10-31 08:16:00,43.1,34.0,30.17,SSE,166,0.0,0.0,70,0.00,,---,0.00,VWS V14.01,2013-10-31 15:16:00,
2013-10-31 08:21:00,44.2,35.0,30.17,SSE,166,0.0,0.0,70,0.00,,---,0.00,VWS V14.01,2013-10-31 15:21:00,
2013-10-31 08:26:00,45.5,35.2,30.17,SSE,166,0.0,0.0,67,0.00,,---,0.00,VWS V14.01,2013-10-31 15:26:00,
2013-10-31 08:31:00,45.9,35.2,30.17,SSE,167,0.0,0.0,66,0.00,,---,0.00,VWS V14.01,2013-10-31 15:31:00,
2013-10-31 08:36:00,46.2,34.7,30.18,SE,135,0.0,0.0,64,0.00,,---,0.00,VWS V14.01,2013-10-31 15:36:00,
2013-10-31 08:41:00,46.1,34.6,30.18,East,94,0.0,0.0,64,0.00,,---,0.00,VWS V14.01,2013-10-31 15:41:00,
2013-10-31 08:46:00,46.7,34.8,30.18,East,95,0.0,0.0,63,0.00,,---,0.00,VWS V14.01,2013-10-31 15:46:00,
2013-10-31 08:51:00,46.8,34.5,30.18,ENE,71,0.0,0.0,62,0.00,,---,0.00,VWS V14.01,2013-10-31 15:51:00,
2013-10-31 08:56:00,47.2,34.9,30.18,ENE,71,0.0,0.0,62,0.00,,---,0.00,VWS V14.01,2013-10-31 15:56:00,
2013-10-31 09:01:00,47.4,35.0,30.18,NE,37,0.0,0.0,62,0.00,,---,0.00,VWS V14.01,2013-10-31 16:01:00,
2013-10-31 09:06:00,47.6,34.8,30.18,NE,39,0.0,0.0,61,0.00,,---,0.00,VWS V14.01,2013-10-31 16:06:00,
2013-10-31 09:11:00,48.3,35.1,30.18,East,97,0.0,0.0,60,0.00,,---,0.00,VWS V14.01,2013-10-31 16:11:00,
2013-10-31 09:16:00,49.1,35.4,30.18,ESE,111,0.0,0.0,59,0.00,,---,0.00,VWS V14.01,2013-10-31 16:16:00,
2013-10-31 09:21:00,49.8,35.2,30.18,SE,145,0.0,0.0,57,0.00,,---,0.00,VWS V14.01,2013-10-31 16:21:00,
2013-10-31 09:26:00,50.7,35.1,30.18,ESE,103,0.0,0.0,55,0.00,,---,0.00,VWS V14.01,2013-10-31 16:26:00,
2013-10-31 09:31:00,51.4,35.8,30.18,ESE,105,0.0,0.0,55,0.00,,---,0.00,VWS V14.01,2013-10-31 16:31:00,
2013-10-31 09:36:00,52.0,35.4,30.18,East,84,0.0,0.0,53,0.00,,---,0.00,VWS V14.01,2013-10-31 16:36:00,
2013-10-31 09:41:00,52.4,35.8,30.18,East,82,0.0,0.0,53,0.00,,---,0.00,VWS V14.01,2013-10-31 16:41:00,
2013-10-31 09:46:00,52.1,35.0,30.18,NNE,27,0.0,0.0,52,0.00,,---,0.00,VWS V14.01,2013-10-31 16:46:00,
2013-10-31 09:51:00,51.9,35.3,30.18,NE,35,0.0,0.0,53,0.00,,---,0.00,VWS V14.01,2013-10-31 16:51:00,
2013-10-31 09:56:00,51.9,35.3,30.18,NNE,30,0.0,0.0,53,0.00,,---,0.00,VWS V14.01,2013-10-31 16:56:00,
2013-10-31 10:01:00,52.2,35.1,30.18,North,4,0.0,0.0,52,0.00,,---,0.00,VWS V14.01,2013-10-31 17:01:00,
2013-10-31 10:06:00,52.7,35.6,30.19,North,349,0.0,0.0,52,0.00,,---,0.00,VWS V14.01,2013-10-31 17:06:00,
2013-10-31 10:11:00,53.1,35.5,30.18,North,353,0.0,0.0,51,0.00,,---,0.00,VWS V14.01,2013-10-31 17:11:00,
2013-10-31 10:16:00,53.5,35.3,30.18,NNW,336,0.0,0.0,50,0.00,,---,0.00,VWS V14.01,2013-10-31 17:16:00,
2013-10-31 10:21:00,53.5,35.3,30.18,WNW,295,0.0,0.0,50,0.00,,---,0.00,VWS V14.01,2013-10-31 17:21:00,
2013-10-31 10:26:00,53.6,35.4,30.18,West,276,0.0,0.0,50,0.00,,---,0.00,VWS V14.01,2013-10-31 17:26:00,
2013-10-31 10:31:00,53.9,35.2,30.18,WNW,284,0.0,2.0,49,0.00,,---,0.00,VWS V14.01,2013-10-31 17:31:00,
2013-10-31 10:36:00,54.1,35.9,30.18,NW,310,0.0,2.0,50,0.00,,---,0.00,VWS V14.01,2013-10-31 17:36:00,
2013-10-31 10:41:00,54.4,35.7,30.18,North,360,0.0,2.0,49,0.00,,---,0.00,VWS V14.01,2013-10-31 17:41:00,
2013-10-31 10:47:00,54.5,35.2,30.18,NNE,17,0.0,3.0,48,0.00,,---,0.00,VWS V14.01,2013-10-31 17:47:00,
2013-10-31 10:52:00,54.5,35.2,30.18,NE,54,0.0,3.0,48,0.00,,---,0.00,VWS V14.01,2013-10-31 17:52:00,
2013-10-31 10:57:00,55.0,35.7,30.18,NNE,29,0.0,3.0,48,0.00,,---,0.00,VWS V14.01,2013-10-31 17:57:00,
2013-10-31 11:02:00,55.5,35.6,30.18,NNE,26,2.0,2.0,47,0.00,,---,0.00,VWS V14.01,2013-10-31 18:02:00,
2013-10-31 11:07:00,55.4,35.5,30.18,NNW,345,0.0,3.0,47,0.00,,---,0.00,VWS V14.01,2013-10-31 18:07:00,
2013-10-31 11:12:00,55.5,35.6,30.18,NNE,22,0.0,3.0,47,0.00,,---,0.00,VWS V14.01,2013-10-31 18:12:00,
2013-10-31 11:17:00,56.0,36.1,30.18,North,352,0.0,2.0,47,0.00,,---,0.00,VWS V14.01,2013-10-31 18:17:00,
2013-10-31 11:22:00,56.1,35.6,30.18,NE,54,0.0,2.0,46,0.00,,---,0.00,VWS V14.01,2013-10-31 18:22:00,
2013-10-31 11:27:00,56.3,35.8,30.18,East,88,0.0,2.0,46,0.00,,---,0.00,VWS V14.01,2013-10-31 18:27:00,
2013-10-31 11:32:00,56.5,36.0,30.18,WNW,287,0.0,0.0,46,0.00,,---,0.00,VWS V14.01,2013-10-31 18:32:00,
2013-10-31 11:37:00,57.1,36.0,30.17,ENE,67,1.0,1.0,45,0.00,,---,0.00,VWS V14.01,2013-10-31 18:37:00,
2013-10-31 11:42:00,57.4,35.7,30.17,NNW,333,0.0,4.0,44,0.00,,---,0.00,VWS V14.01,2013-10-31 18:42:00,
2013-10-31 11:47:00,57.8,36.0,30.17,SSE,148,0.0,0.0,44,0.00,,---,0.00,VWS V14.01,2013-10-31 18:47:00,
2013-10-31 11:52:00,58.7,35.7,30.17,NE,47,0.0,1.0,42,0.00,,---,0.00,VWS V14.01,2013-10-31 18:52:00,
2013-10-31 11:57:00,58.5,35.5,30.17,NNW,347,0.0,2.0,42,0.00,,---,0.00,VWS V14.01,2013-10-31 18:57:00,
2013-10-31 12:02:00,58.7,35.1,30.17,NNE,17,1.0,2.0,41,0.00,,---,0.00,VWS V14.01,2013-10-31 19:02:00,
2013-10-31 12:07:00,58.9,35.3,30.17,NNE,17,0.0,2.0,41,0.00,,---,0.00,VWS V14.01,2013-10-31 19:07:00,
2013-10-31 12:12:00,59.2,35.5,30.16,East,84,0.0,2.0,41,0.00,,---,0.00,VWS V14.01,2013-10-31 19:12:00,
2013-10-31 12:17:00,59.4,34.5,30.16,ESE,110,0.0,3.0,39,0.00,,---,0.00,VWS V14.01,2013-10-31 19:17:00,
2013-10-31 12:22:00,60.3,34.6,30.16,ESE,112,0.0,3.0,38,0.00,,---,0.00,VWS V14.01,2013-10-31 19:22:00,
2013-10-31 12:27:00,61.1,34.7,30.16,North,349,4.0,7.0,37,0.00,,---,0.00,VWS V14.01,2013-10-31 19:27:00,
2013-10-31 12:32:00,60.8,34.4,30.16,NNE,14,0.0,5.0,37,0.00,,---,0.00,VWS V14.01,2013-10-31 19:32:00,
2013-10-31 12:37:00,60.8,33.7,30.15,NNE,23,1.0,6.0,36,0.00,,---,0.00,VWS V14.01,2013-10-31 19:37:00,
2013-10-31 12:42:00,60.5,33.4,30.15,East,86,0.0,7.0,36,0.00,,---,0.00,VWS V14.01,2013-10-31 19:42:00,
2013-10-31 12:47:00,61.2,34.1,30.15,WNW,291,2.0,2.0,36,0.00,,---,0.00,VWS V14.01,2013-10-31 19:47:00,
2013-10-31 12:52:00,61.5,34.3,30.14,ENE,58,1.0,4.0,36,0.00,,---,0.00,VWS V14.01,2013-10-31 19:52:00,
2013-10-31 12:53:00,61.5,34.3,30.14,ENE,63,0.0,4.0,36,0.00,,---,0.00,VWS V14.01,2013-10-31 19:53:00,
2013-10-31 12:58:00,62.1,34.8,30.14,ENE,75,0.0,4.0,36,0.00,,---,0.00,VWS V14.01,2013-10-31 19:58:00,
2013-10-31 13:03:00,62.5,33.8,30.13,NNE,14,4.0,5.0,34,0.00,,---,0.00,VWS V14.01,2013-10-31 20:03:00,
2013-10-31 13:08:00,62.2,32.8,30.13,ENE,78,0.0,5.0,33,0.00,,---,0.00,VWS V14.01,2013-10-31 20:08:00,
2013-10-31 13:13:00,62.4,32.9,30.13,NE,42,4.0,5.0,33,0.00,,---,0.00,VWS V14.01,2013-10-31 20:13:00,
2013-10-31 13:18:00,62.6,33.1,30.12,ENE,68,0.0,2.0,33,0.00,,---,0.00,VWS V14.01,2013-10-31 20:18:00,
2013-10-31 13:23:00,63.1,32.0,30.12,NE,44,2.0,3.0,31,0.00,,---,0.00,VWS V14.01,2013-10-31 20:23:00,
2013-10-31 13:28:00,62.9,32.6,30.12,ESE,120,4.0,5.0,32,0.00,,---,0.00,VWS V14.01,2013-10-31 20:28:00,
2013-10-31 13:33:00,63.4,32.3,30.12,NE,37,6.0,8.0,31,0.00,,---,0.00,VWS V14.01,2013-10-31 20:33:00,
2013-10-31 13:38:00,63.8,32.6,30.12,NNE,21,1.0,8.0,31,0.00,,---,0.00,VWS V14.01,2013-10-31 20:38:00,
2013-10-31 13:43:00,63.9,31.9,30.11,SE,146,0.0,8.0,30,0.00,,---,0.00,VWS V14.01,2013-10-31 20:43:00,
2013-10-31 13:48:00,64.3,31.4,30.11,NNW,348,5.0,5.0,29,0.00,,---,0.00,VWS V14.01,2013-10-31 20:48:00,
2013-10-31 13:53:00,64.5,32.4,30.11,NW,316,1.0,5.0,30,0.00,,---,0.00,VWS V14.01,2013-10-31 20:53:00,
2013-10-31 13:58:00,64.9,31.0,30.11,ENE,60,2.0,7.0,28,0.00,,---,0.00,VWS V14.01,2013-10-31 20:58:00,
2013-10-31 14:03:00,64.9,31.0,30.10,East,94,0.0,6.0,28,0.00,,---,0.00,VWS V14.01,2013-10-31 21:03:00,
2013-10-31 14:08:00,65.4,30.6,30.10,NNW,335,4.0,8.0,27,0.00,,---,0.00,VWS V14.01,2013-10-31 21:08:00,
2013-10-31 14:13:00,65.2,29.5,30.10,NE,43,1.0,8.0,26,0.00,,---,0.00,VWS V14.01,2013-10-31 21:13:00,
2013-10-31 14:18:00,65.5,30.7,30.10,ENE,61,4.0,6.0,27,0.00,,---,0.00,VWS V14.01,2013-10-31 21:18:00,
2013-10-31 14:23:00,65.9,31.0,30.09,NE,38,3.0,6.0,27,0.00,,---,0.00,VWS V14.01,2013-10-31 21:23:00,
2013-10-31 14:28:00,66.3,30.4,30.09,West,264,1.0,7.0,26,0.00,,---,0.00,VWS V14.01,2013-10-31 21:28:00,
2013-10-31 14:33:00,66.5,29.6,30.09,NNE,23,1.0,5.0,25,0.00,,---,0.00,VWS V14.01,2013-10-31 21:33:00,
2013-10-31 14:38:00,66.6,29.7,30.09,ENE,70,4.0,9.0,25,0.00,,---,0.00,VWS V14.01,2013-10-31 21:38:00,
2013-10-31 14:43:00,66.6,28.7,30.09,NE,56,9.0,12.0,24,0.00,,---,0.00,VWS V14.01,2013-10-31 21:43:00,
2013-10-31 14:48:00,66.7,27.8,30.09,SE,131,0.0,9.0,23,0.00,,---,0.00,VWS V14.01,2013-10-31 21:48:00,
2013-10-31 14:53:00,67.5,29.5,30.09,East,94,5.0,9.0,24,0.00,,---,0.00,VWS V14.01,2013-10-31 21:53:00,
2013-10-31 14:58:00,67.5,28.4,30.08,NNE,27,7.0,9.0,23,0.00,,---,0.00,VWS V14.01,2013-10-31 21:58:00,
2013-10-31 15:03:00,67.1,28.1,30.08,NE,35,6.0,10.0,23,0.00,,---,0.00,VWS V14.01,2013-10-31 22:03:00,
2013-10-31 15:08:00,67.3,28.3,30.08,North,9,2.0,10.0,23,0.00,,---,0.00,VWS V14.01,2013-10-31 22:08:00,
2013-10-31 15:13:00,67.7,27.5,30.08,NE,51,4.0,10.0,22,0.00,,---,0.00,VWS V14.01,2013-10-31 22:13:00,
2013-10-31 15:18:00,67.6,27.4,30.08,NE,46,2.0,3.0,22,0.00,,---,0.00,VWS V14.01,2013-10-31 22:18:00,
2013-10-31 15:23:00,67.7,26.4,30.08,NNE,30,9.0,10.0,21,0.00,,---,0.00,VWS V14.01,2013-10-31 22:23:00,
2013-10-31 15:28:00,68.0,26.6,30.08,NE,48,12.0,12.0,21,0.00,,---,0.00,VWS V14.01,2013-10-31 22:28:00,
2013-10-31 15:33:00,68.1,25.5,30.07,NE,41,5.0,11.0,20,0.00,,---,0.00,VWS V14.01,2013-10-31 22:33:00,
2013-10-31 15:38:00,68.1,26.7,30.07,NNE,18,11.0,12.0,21,0.00,,---,0.00,VWS V14.01,2013-10-31 22:38:00,
2013-10-31 15:43:00,68.0,26.6,30.07,ENE,68,2.0,12.0,21,0.00,,---,0.00,VWS V14.01,2013-10-31 22:43:00,
2013-10-31 15:48:00,68.0,26.6,30.07,NNE,27,8.0,8.0,21,0.00,,---,0.00,VWS V14.01,2013-10-31 22:48:00,
2013-10-31 15:53:00,68.2,26.8,30.07,NE,55,5.0,11.0,21,0.00,,---,0.00,VWS V14.01,2013-10-31 22:53:00,
2013-10-31 15:58:00,68.3,26.9,30.07,North,11,4.0,11.0,21,0.00,,---,0.00,VWS V14.01,2013-10-31 22:58:00,
2013-10-31 16:03:00,68.3,26.9,30.07,NE,48,4.0,10.0,21,0.00,,---,0.00,VWS V14.01,2013-10-31 23:03:00,
2013-10-31 16:08:00,68.4,27.0,30.07,East,88,3.0,10.0,21,0.00,,---,0.00,VWS V14.01,2013-10-31 23:08:00,
2013-10-31 16:13:00,68.5,27.1,30.06,NE,55,5.0,10.0,21,0.00,,---,0.00,VWS V14.01,2013-10-31 23:13:00,
2013-10-31 16:18:00,68.3,26.9,30.07,NNE,27,7.0,8.0,21,0.00,,---,0.00,VWS V14.01,2013-10-31 23:18:00,
2013-10-31 16:23:00,68.4,28.1,30.06,NNE,20,10.0,13.0,22,0.00,,---,0.00,VWS V14.01,2013-10-31 23:23:00,
2013-10-31 16:28:00,68.1,27.9,30.06,NE,38,7.0,13.0,22,0.00,,---,0.00,VWS V14.01,2013-10-31 23:28:00,
2013-10-31 16:33:00,68.3,28.0,30.06,NNE,33,5.0,7.0,22,0.00,,---,0.00,VWS V14.01,2013-10-31 23:33:00,
2013-10-31 16:38:00,68.6,28.3,30.06,NE,47,5.0,7.0,22,0.00,,---,0.00,VWS V14.01,2013-10-31 23:38:00,
2013-10-31 16:44:00,68.3,26.9,30.06,NNE,22,8.0,10.0,21,0.00,,---,0.00,VWS V14.01,2013-10-31 23:44:00,
2013-10-31 16:49:00,68.3,28.0,30.06,NE,45,4.0,10.0,22,0.00,,---,0.00,VWS V14.01,2013-10-31 23:49:00,
2013-10-31 16:54:00,68.2,27.9,30.06,NNE,25,8.0,11.0,22,0.00,,---,0.00,VWS V14.01,2013-10-31 23:54:00,
2013-10-31 16:59:00,68.0,27.8,30.06,NE,47,5.0,11.0,22,0.00,,---,0.00,VWS V14.01,2013-10-31 23:59:00,
2013-10-31 17:04:00,68.0,27.8,30.06,NNE,30,6.0,12.0,22,0.00,,---,0.00,VWS V14.01,2013-11-01 00:04:00,
2013-10-31 17:09:00,67.9,26.6,30.06,NNE,33,10.0,13.0,21,0.00,,---,0.00,VWS V14.01,2013-11-01 00:09:00,
2013-10-31 17:14:00,67.8,26.5,30.06,NNE,19,6.0,10.0,21,0.00,,---,0.00,VWS V14.01,2013-11-01 00:14:00,
2013-10-31 17:19:00,67.7,26.4,30.06,NNE,33,9.0,11.0,21,0.00,,---,0.00,VWS V14.01,2013-11-01 00:19:00,
2013-10-31 17:24:00,67.6,26.3,30.06,NNE,26,7.0,11.0,21,0.00,,---,0.00,VWS V14.01,2013-11-01 00:24:00,
2013-10-31 17:29:00,67.4,26.1,30.06,NE,42,5.0,6.0,21,0.00,,---,0.00,VWS V14.01,2013-11-01 00:29:00,
2013-10-31 17:34:00,67.3,26.1,30.06,NE,36,3.0,7.0,21,0.00,,---,0.00,VWS V14.01,2013-11-01 00:34:00,
2013-10-31 17:39:00,67.0,25.8,30.06,NNE,33,6.0,7.0,21,0.00,,---,0.00,VWS V14.01,2013-11-01 00:39:00,
2013-10-31 17:44:00,66.6,26.6,30.06,NE,34,3.0,4.0,22,0.00,,---,0.00,VWS V14.01,2013-11-01 00:44:00,
2013-10-31 17:49:00,66.2,26.3,30.06,NNE,30,3.0,6.0,22,0.00,,---,0.00,VWS V14.01,2013-11-01 00:49:00,
2013-10-31 17:54:00,65.8,25.9,30.06,NNE,21,2.0,6.0,22,0.00,,---,0.00,VWS V14.01,2013-11-01 00:54:00,
2013-10-31 17:59:00,65.4,26.7,30.06,NNE,32,0.0,0.0,23,0.00,,---,0.00,VWS V14.01,2013-11-01 00:59:00,
2013-10-31 18:04:00,65.0,26.3,30.06,NNE,32,0.0,0.0,23,0.00,,---,0.00,VWS V14.01,2013-11-01 01:04:00,
2013-10-31 18:09:00,64.7,27.1,30.06,NNE,28,0.0,0.0,24,0.00,,---,0.00,VWS V14.01,2013-11-01 01:09:00,
2013-10-31 18:14:00,64.2,26.7,30.06,NNE,28,0.0,0.0,24,0.00,,---,0.00,VWS V14.01,2013-11-01 01:14:00,
2013-10-31 18:19:00,63.9,26.4,30.06,NNE,28,0.0,0.0,24,0.00,,---,0.00,VWS V14.01,2013-11-01 01:19:00,
2013-10-31 18:24:00,63.5,27.1,30.06,NNE,28,0.0,0.0,25,0.00,,---,0.00,VWS V14.01,2013-11-01 01:24:00,
2013-10-31 18:29:00,63.1,26.7,30.06,NNE,29,0.0,0.0,25,0.00,,---,0.00,VWS V14.01,2013-11-01 01:29:00,
2013-10-31 18:34:00,62.4,27.1,30.06,NNE,28,0.0,0.0,26,0.00,,---,0.00,VWS V14.01,2013-11-01 01:34:00,
2013-10-31 18:40:00,61.7,26.5,30.07,NNE,28,0.0,0.0,26,0.00,,---,0.00,VWS V14.01,2013-11-01 01:40:00,
2013-10-31 18:45:00,61.2,27.0,30.07,SE,145,0.0,0.0,27,0.00,,---,0.00,VWS V14.01,2013-11-01 01:45:00,
2013-10-31 18:50:00,60.4,28.0,30.07,SSE,168,0.0,0.0,29,0.00,,---,0.00,VWS V14.01,2013-11-01 01:50:00,
2013-10-31 18:55:00,59.7,29.0,30.07,South,169,0.0,0.0,31,0.00,,---,0.00,VWS V14.01,2013-11-01 01:55:00,
2013-10-31 19:00:00,59.0,29.2,30.07,South,188,0.0,0.0,32,0.00,,---,0.00,VWS V14.01,2013-11-01 02:00:00,
2013-10-31 19:05:00,58.6,28.9,30.07,SSW,200,0.0,0.0,32,0.00,,---,0.00,VWS V14.01,2013-11-01 02:05:00,
2013-10-31 19:10:00,58.6,29.6,30.07,SSW,200,0.0,0.0,33,0.00,,---,0.00,VWS V14.01,2013-11-01 02:10:00,
2013-10-31 19:15:00,58.0,29.8,30.07,SSW,197,0.0,0.0,34,0.00,,---,0.00,VWS V14.01,2013-11-01 02:15:00,
2013-10-31 19:20:00,57.5,30.1,30.07,South,184,0.0,0.0,35,0.00,,---,0.00,VWS V14.01,2013-11-01 02:20:00,
2013-10-31 19:25:00,57.2,29.8,30.07,SSW,193,0.0,0.0,35,0.00,,---,0.00,VWS V14.01,2013-11-01 02:25:00,
2013-10-31 19:30:00,56.8,30.8,30.07,SSW,195,0.0,0.0,37,0.00,,---,0.00,VWS V14.01,2013-11-01 02:30:00,
2013-10-31 19:35:00,56.3,30.4,30.08,SSW,198,0.0,0.0,37,0.00,,---,0.00,VWS V14.01,2013-11-01 02:35:00,
2013-10-31 19:40:00,56.1,30.2,30.08,SW,214,0.0,0.0,37,0.00,,---,0.00,VWS V14.01,2013-11-01 02:40:00,
2013-10-31 19:45:00,56.2,30.3,30.08,SSW,198,0.0,0.0,37,0.00,,---,0.00,VWS V14.01,2013-11-01 02:45:00,
2013-10-31 19:50:00,55.7,29.9,30.08,SW,217,0.0,0.0,37,0.00,,---,0.00,VWS V14.01,2013-11-01 02:50:00,
2013-10-31 19:55:00,55.3,30.8,30.08,SSW,212,0.0,0.0,39,0.00,,---,0.00,VWS V14.01,2013-11-01 02:55:00,
2013-10-31 20:00:00,55.0,29.9,30.08,SSW,207,0.0,0.0,38,0.00,,---,0.00,VWS V14.01,2013-11-01 03:00:00,
2013-10-31 20:05:00,54.9,29.8,30.08,SSW,210,0.0,0.0,38,0.00,,---,0.00,VWS V14.01,2013-11-01 03:05:00,
2013-10-31 20:10:00,54.6,28.9,30.08,SW,228,0.0,0.0,37,0.00,,---,0.00,VWS V14.01,2013-11-01 03:10:00,
2013-10-31 20:15:00,54.2,29.8,30.09,SSW,198,0.0,0.0,39,0.00,,---,0.00,VWS V14.01,2013-11-01 03:15:00,
2013-10-31 20:20:00,54.0,29.6,30.09,South,172,0.0,0.0,39,0.00,,---,0.00,VWS V14.01,2013-11-01 03:20:00,
2013-10-31 20:25:00,54.1,29.1,30.09,SSW,203,0.0,0.0,38,0.00,,---,0.00,VWS V14.01,2013-11-01 03:25:00,
2013-10-31 20:30:00,54.5,30.1,30.09,SSW,203,0.0,0.0,39,0.00,,---,0.00,VWS V14.01,2013-11-01 03:30:00,
2013-10-31 20:35:00,53.9,29.5,30.09,SSW,200,0.0,0.0,39,0.00,,---,0.00,VWS V14.01,2013-11-01 03:35:00,
2013-10-31 20:40:00,54.2,29.8,30.09,SSW,197,0.0,0.0,39,0.00,,---,0.00,VWS V14.01,2013-11-01 03:40:00,
2013-10-31 20:45:00,53.7,29.4,30.10,South,185,0.0,0.0,39,0.00,,---,0.00,VWS V14.01,2013-11-01 03:45:00,
2013-10-31 20:50:00,53.6,29.3,30.10,SSW,194,0.0,0.0,39,0.00,,---,0.00,VWS V14.01,2013-11-01 03:50:00,
2013-10-31 20:56:00,53.8,29.4,30.10,SW,219,0.0,0.0,39,0.00,,---,0.00,VWS V14.01,2013-11-01 03:56:00,
2013-10-31 21:01:00,54.3,28.6,30.10,SW,221,0.0,0.0,37,0.00,,---,0.00,VWS V14.01,2013-11-01 04:01:00,
2013-10-31 21:02:00,54.1,30.3,30.10,SW,221,0.0,0.0,40,0.00,,---,0.00,VWS V14.01,2013-11-01 04:02:00,
2013-10-31 21:03:00,53.8,30.1,30.10,SSW,207,0.0,0.0,40,0.00,,---,0.00,VWS V14.01,2013-11-01 04:03:00,
2013-10-31 21:06:00,53.2,28.9,30.10,SSW,205,0.0,0.0,39,0.00,,---,0.00,VWS V14.01,2013-11-01 04:06:00,
2013-10-31 21:10:00,52.6,29.6,30.10,SSW,203,0.0,0.0,41,0.00,,---,0.00,VWS V14.01,2013-11-01 04:10:00,
2013-10-31 21:15:00,51.9,29.5,30.10,South,172,0.0,0.0,42,0.00,,---,0.00,VWS V14.01,2013-11-01 04:15:00,
2013-10-31 21:19:00,51.7,29.4,30.10,South,186,0.0,0.0,42,0.00,,---,0.00,VWS V14.01,2013-11-01 04:19:00,
2013-10-31 21:24:00,51.7,29.4,30.10,South,188,0.0,0.0,42,0.00,,---,0.00,VWS V14.01,2013-11-01 04:24:00,
2013-10-31 21:29:00,51.7,28.2,30.11,SSW,193,0.0,0.0,40,0.00,,---,0.00,VWS V14.01,2013-11-01 04:29:00,
2013-10-31 21:34:00,52.5,28.3,30.11,SSW,208,0.0,0.0,39,0.00,,---,0.00,VWS V14.01,2013-11-01 04:34:00,
2013-10-31 21:39:00,52.6,29.0,30.11,SW,215,0.0,0.0,40,0.00,,---,0.00,VWS V14.01,2013-11-01 04:39:00,
2013-10-31 21:44:00,52.1,28.5,30.11,SE,137,0.0,0.0,40,0.00,,---,0.00,VWS V14.01,2013-11-01 04:44:00,
2013-10-31 21:49:00,51.9,29.5,30.11,ESE,120,0.0,0.0,42,0.00,,---,0.00,VWS V14.01,2013-11-01 04:49:00,
2013-10-31 21:54:00,51.5,29.2,30.11,ESE,123,0.0,0.0,42,0.00,,---,0.00,VWS V14.01,2013-11-01 04:54:00,
2013-10-31 21:59:00,51.1,28.8,30.12,SSE,158,0.0,0.0,42,0.00,,---,0.00,VWS V14.01,2013-11-01 04:59:00,
2013-10-31 22:04:00,50.8,29.1,30.12,South,184,0.0,0.0,43,0.00,,---,0.00,VWS V14.01,2013-11-01 05:04:00,
2013-10-31 22:09:00,50.6,29.0,30.12,South,183,0.0,0.0,43,0.00,,---,0.00,VWS V14.01,2013-11-01 05:09:00,
2013-10-31 22:14:00,50.4,29.3,30.12,SSW,193,0.0,0.0,44,0.00,,---,0.00,VWS V14.01,2013-11-01 05:14:00,
2013-10-31 22:19:00,50.3,28.7,30.12,South,177,0.0,1.0,43,0.00,,---,0.00,VWS V14.01,2013-11-01 05:19:00,
2013-10-31 22:24:00,50.1,29.0,30.12,SSE,155,0.0,1.0,44,0.00,,---,0.00,VWS V14.01,2013-11-01 05:24:00,
2013-10-31 22:29:00,50.1,28.5,30.12,South,173,0.0,0.0,43,0.00,,---,0.00,VWS V14.01,2013-11-01 05:29:00,
2013-10-31 22:34:00,50.3,28.7,30.12,SSE,162,0.0,0.0,43,0.00,,---,0.00,VWS V14.01,2013-11-01 05:34:00,
2013-10-31 22:39:00,50.0,28.4,30.12,SSE,166,0.0,0.0,43,0.00,,---,0.00,VWS V14.01,2013-11-01 05:39:00,
2013-10-31 22:44:00,49.7,28.7,30.12,SSE,164,0.0,0.0,44,0.00,,---,0.00,VWS V14.01,2013-11-01 05:44:00,
2013-10-31 22:49:00,49.4,29.0,30.12,South,170,0.0,0.0,45,0.00,,---,0.00,VWS V14.01,2013-11-01 05:49:00,
2013-10-31 22:54:00,49.3,28.9,30.12,SSE,164,0.0,0.0,45,0.00,,---,0.00,VWS V14.01,2013-11-01 05:54:00,
2013-10-31 22:55:00,49.2,28.8,30.12,SSE,167,0.0,0.0,45,0.00,,---,0.00,VWS V14.01,2013-11-01 05:55:00,
2013-10-31 23:00:00,49.0,29.1,30.12,SSE,167,0.0,0.0,46,0.00,,---,0.00,VWS V14.01,2013-11-01 06:00:00,
2013-10-31 23:05:00,48.9,29.0,30.12,South,170,0.0,0.0,46,0.00,,---,0.00,VWS V14.01,2013-11-01 06:05:00,
2013-10-31 23:10:00,48.8,28.4,30.12,South,172,0.0,0.0,45,0.00,,---,0.00,VWS V14.01,2013-11-01 06:10:00,
2013-10-31 23:15:00,48.8,28.4,30.12,SSE,167,0.0,0.0,45,0.00,,---,0.00,VWS V14.01,2013-11-01 06:15:00,
2013-10-31 23:20:00,48.6,28.8,30.12,SSE,167,0.0,0.0,46,0.00,,---,0.00,VWS V14.01,2013-11-01 06:20:00,
2013-10-31 23:25:00,48.7,28.3,30.12,SSE,159,0.0,0.0,45,0.00,,---,0.00,VWS V14.01,2013-11-01 06:25:00,
2013-10-31 23:30:00,48.9,28.5,30.12,SSE,159,0.0,0.0,45,0.00,,---,0.00,VWS V14.01,2013-11-01 06:30:00,
2013-10-31 23:35:00,48.7,28.3,30.12,SSE,165,0.0,0.0,45,0.00,,---,0.00,VWS V14.01,2013-11-01 06:35:00,
2013-10-31 23:40:00,48.7,28.9,30.12,South,169,0.0,0.0,46,0.00,,---,0.00,VWS V14.01,2013-11-01 06:40:00,
2013-10-31 23:45:00,48.2,28.4,30.12,South,186,0.0,0.0,46,0.00,,---,0.00,VWS V14.01,2013-11-01 06:45:00,
2013-10-31 23:50:00,47.9,28.7,30.12,South,184,0.0,0.0,47,0.00,,---,0.00,VWS V14.01,2013-11-01 06:50:00,
2013-10-31 23:55:00,47.7,29.0,30.12,South,173,0.0,0.0,48,0.00,,---,0.00,VWS V14.01,2013-11-01 06:55:00,